{"data":{"norad_id":51873,"intl_designator":"2022-022X","name":"STARLINK-3582","alt_names":[],"object_type":"PAYLOAD","status":"ACTIVE","operator":null,"country":"US","launch_date":"2022-03-03","launch_site_code":"AFETR","launch_vehicle":null,"mission":null,"orbit_class":"UNKNOWN","rcs_meters":null,"size_class":null,"mass_kg":null,"dimensions":null,"purposes":["comms"],"wikipedia_slug":null,"has_3d_model":false,"image_url":null,"decayed_at":null,"tle_current":{"epoch":"2026-05-25T01:43:47.501184Z","epoch_age_seconds":72387,"freshness":"FRESH","line1":"1 51873U 22022X   26145.07207756  .00023878  00000+0  10739-2 0  9993","line2":"2 51873  53.2164  16.7194 0005019 101.1119 259.0443 15.21009739234782","mean_motion":15.21009739,"eccentricity":0.0005019,"inclination_deg":53.2164,"raan_deg":16.7194,"arg_perigee_deg":101.1119,"mean_anomaly_deg":259.0443,"bstar":0.0010739,"rev_number":23478,"period_min":94.673950013413,"perigee_km":499.34006810802,"apogee_km":506.24714625151,"semimajor_km":6880.9306071798,"source":"CELESTRAK","updated_at":"2026-05-25T13:38:16.983107Z"}}}